Date String (YYYY-MM-DD hh:mm:ss) UTC,Instrument flags,Ambient pressure (hPa),Sample flow (lpm),Bypass flow (lpm),Sample temperature (°C),Ambient temperature (°C),ASC tube jacket temperature (°C),LED temperature (°C),Box temperature (°C),Sample RH (%),Span deviation,Mass concentration (μg/m³),Mass concentration (μg/m³),Mass concentration (μg/m³)
DateTimeUTC,F1_M11,P_M11,Q1_M11,Q2_M11,T1_M11,T2_M11,T3_M11,T4_M11,T5_M11,U1_M11,ZSPAN_M11,X0_M11,X2_M11,X1_M11
2021-12-09 21:00:00,,0814.0,5.00,0.00,26.2,25.4,00.0,35.2,28.1,12.9,0000.0,0011.59,0003.37,0002.06
2021-12-09 21:01:00,,0814.3,5.02,0.00,26.2,25.4,00.0,35.2,28.1,12.9,0000.0,0011.46,0003.40,0002.06
2021-12-09 21:02:00,,0814.3,5.00,0.00,26.2,25.4,00.0,35.2,28.1,12.9,0000.0,0009.89,0003.40,0002.05
2021-12-09 21:03:00,,0814.1,4.99,0.00,26.2,25.4,00.0,35.2,28.1,12.9,0000.0,0010.05,0003.42,0002.05
2021-12-09 21:04:00,,0814.3,5.01,0.00,26.2,25.4,00.0,35.2,28.0,12.9,0000.0,0010.89,0003.41,0002.04
2021-12-09 21:05:00,,0814.1,5.00,0.00,26.2,25.4,00.0,35.2,28.0,12.9,0000.0,0011.71,0003.43,0002.04
2021-12-09 21:06:00,,0814.4,5.00,0.00,26.2,25.4,00.0,35.2,28.0,12.9,0000.0,0012.31,0003.41,0002.03
2021-12-09 21:07:00,,0814.3,5.00,0.00,26.2,25.4,00.0,35.2,28.0,12.9,0000.0,0012.36,0003.40,0002.03
2021-12-09 21:08:00,,0814.1,4.99,0.00,26.3,25.4,00.0,35.2,28.0,12.9,0000.0,0012.54,0003.39,0002.02
2021-12-09 21:09:00,,0814.4,5.01,0.00,26.3,25.4,00.0,35.2,28.0,12.9,0000.0,0012.78,0003.35,0002.01
2021-12-09 21:10:00,,0814.1,5.01,0.00,26.3,25.5,00.0,35.2,28.0,12.9,0000.0,0013.70,0003.32,0002.01
2021-12-09 21:11:00,,0814.0,4.99,0.00,26.3,25.5,00.0,35.2,28.1,12.9,0000.0,0013.74,0003.28,0002.01
2021-12-09 21:12:00,,0813.9,5.01,0.00,26.3,25.5,00.0,35.2,28.1,12.9,0000.0,0014.36,0003.21,0002.03
2021-12-09 21:13:00,,0813.9,5.01,0.00,26.3,25.5,00.0,35.2,28.1,12.9,0000.0,0014.04,0003.17,0002.03
2021-12-09 21:14:00,,0813.9,4.99,0.00,26.3,25.5,00.0,35.2,28.1,12.9,0000.0,0013.51,0003.14,0002.03
2021-12-09 21:15:00,,0813.9,5.00,0.00,26.3,25.5,00.0,35.2,28.1,12.9,0000.0,0012.77,0003.16,0002.04
2021-12-09 21:16:00,,0813.8,4.98,0.00,26.3,25.5,00.0,35.2,28.1,12.9,0000.0,0012.90,0003.18,0002.06
2021-12-09 21:17:00,,0814.3,5.01,0.00,26.3,25.5,00.0,35.2,28.1,12.9,0000.0,0012.73,0003.20,0002.06
2021-12-09 21:18:00,,0814.2,4.99,0.00,26.3,25.5,00.0,35.2,28.1,12.9,0000.0,0012.86,0003.21,0002.05
2021-12-09 21:19:00,,0814.1,5.00,0.00,26.3,25.5,00.0,35.2,28.1,12.9,0000.0,0012.49,0003.20,0002.06
2021-12-09 21:20:00,,0814.2,5.01,0.00,26.3,25.5,00.0,35.2,28.1,12.9,0000.0,0012.49,0003.22,0002.08
2021-12-09 21:21:00,,0814.2,4.99,0.00,26.3,25.5,00.0,35.2,28.1,12.8,0000.0,0012.81,0003.22,0002.10
2021-12-09 21:22:00,,0814.2,5.01,0.00,26.3,25.5,00.0,35.2,28.2,12.9,0000.0,0012.89,0003.26,0002.11
2021-12-09 21:23:00,,0814.2,5.00,0.00,26.3,25.5,00.0,35.3,28.1,12.9,0000.0,0012.10,0003.26,0002.10
2021-12-09 21:24:00,,0814.3,4.99,0.00,26.4,25.6,00.0,35.3,28.2,12.9,0000.0,0011.99,0003.27,0002.10
2021-12-09 21:25:00,,0814.2,4.99,0.00,26.4,25.6,00.0,35.3,28.2,12.8,0000.0,0012.57,0003.26,0002.11
2021-12-09 21:26:00,,0814.3,5.01,0.00,26.4,25.5,00.0,35.3,28.2,12.8,0000.0,0012.80,0003.22,0002.10
2021-12-09 21:27:00,,0814.0,4.99,0.00,26.4,25.6,00.0,35.3,28.1,12.8,0000.0,0012.10,0003.20,0002.09
2021-12-09 21:28:00,,0813.8,5.00,0.00,26.4,25.6,00.0,35.3,28.2,12.8,0000.0,0011.44,0003.18,0002.08
2021-12-09 21:29:00,,0813.9,5.00,0.00,26.4,25.6,00.0,35.3,28.2,12.8,0000.0,0011.58,0003.19,0002.08
2021-12-09 21:30:00,,0813.9,4.99,0.00,26.4,25.5,00.0,35.3,28.2,12.8,0000.0,0012.98,0003.17,0002.08
2021-12-09 21:31:00,,0813.9,5.00,0.00,26.4,25.5,00.0,35.3,28.1,12.8,0000.0,0012.98,0003.16,0002.05
2021-12-09 21:32:00,,0813.9,5.00,0.00,26.4,25.5,00.0,35.3,28.2,12.8,0000.0,0012.46,0003.19,0002.03
2021-12-09 21:33:00,,0813.8,4.99,0.00,26.4,25.5,00.0,35.3,28.2,12.8,0000.0,0012.20,0003.20,0002.03
2021-12-09 21:34:00,,0813.8,5.02,0.00,26.4,25.5,00.0,35.3,28.1,13.3,0000.0,0011.82,0003.22,0002.02
2021-12-09 21:35:00,,0813.7,4.98,0.00,26.4,25.5,00.0,35.3,28.1,13.9,0000.0,0011.85,0003.20,0001.96
2021-12-09 21:36:00,,0814.2,5.01,0.00,26.4,25.5,00.0,35.3,28.1,14.0,0000.0,0011.44,0003.22,0001.91
2021-12-09 21:37:00,,0814.3,5.02,0.00,26.3,25.5,00.0,35.3,28.1,13.9,0000.0,0010.67,0003.21,0001.88
2021-12-09 21:38:00,,0814.2,4.99,0.00,26.3,25.5,00.0,35.3,28.1,13.9,0000.0,0010.57,0003.17,0001.84
2021-12-09 21:39:00,,0814.0,5.01,0.00,26.3,25.4,00.0,35.3,28.1,13.6,0000.0,0011.36,0003.12,0001.82
2021-12-09 21:40:00,,0813.8,4.99,0.00,26.3,25.4,00.0,35.3,28.1,13.4,0000.0,0011.06,0003.06,0001.79
2021-12-09 21:41:00,,0813.9,5.00,0.00,26.3,25.4,00.0,35.3,28.1,13.3,0000.0,0009.50,0003.06,0001.77
2021-12-09 21:42:00,,0814.0,5.00,0.00,26.3,25.4,00.0,35.3,28.0,12.9,0000.0,0009.15,0003.02,0001.77
2021-12-09 21:43:00,,0814.2,5.01,0.00,26.3,25.4,00.0,35.3,28.1,12.9,0000.0,0008.47,0002.98,0001.77
2021-12-09 21:44:00,,0814.3,4.98,0.00,26.3,25.5,00.0,35.3,28.1,12.9,0000.0,0008.38,0002.96,0001.77
2021-12-09 21:45:00,,0814.1,5.02,0.00,26.3,25.5,00.0,35.3,28.1,12.9,0000.0,0008.75,0002.93,0001.79
2021-12-09 21:46:00,,0814.3,4.98,0.00,26.3,25.5,00.0,35.3,28.1,12.9,0000.0,0009.41,0002.96,0001.84
2021-12-09 21:47:00,,0814.3,5.02,0.00,26.3,25.5,00.0,35.3,28.1,12.9,0000.0,0009.48,0002.98,0001.89
2021-12-09 21:48:00,,0814.3,4.99,0.00,26.3,25.5,00.0,35.3,28.1,12.9,0000.0,0010.51,0003.05,0001.93
2021-12-09 21:49:00,,0814.3,5.02,0.00,26.3,25.5,00.0,35.3,28.1,13.0,0000.0,0011.14,0003.04,0001.97
2021-12-09 21:50:00,,0814.3,5.00,0.00,26.3,25.5,00.0,35.3,28.1,12.9,0000.0,0010.37,0003.13,0001.99
2021-12-09 21:51:00,,0814.4,5.01,0.00,26.3,25.5,00.0,35.3,28.1,12.9,0000.0,0010.27,0003.14,0002.01
2021-12-09 21:52:00,,0814.4,5.00,0.00,26.3,25.5,00.0,35.3,28.1,12.9,0000.0,0011.14,0003.16,0002.04
2021-12-09 21:53:00,,0814.0,5.00,0.00,26.3,25.5,00.0,35.3,28.1,13.0,0000.0,0011.93,0003.20,0002.04
2021-12-09 21:54:00,,0813.8,5.00,0.00,26.3,25.5,00.0,35.3,28.1,13.1,0000.0,0012.13,0003.21,0002.04
2021-12-09 21:55:00,,0813.8,4.99,0.00,26.3,25.5,00.0,35.3,28.2,13.2,0000.0,0012.06,0003.19,0002.03
2021-12-09 21:56:00,,0813.9,5.01,0.00,26.3,25.5,00.0,35.3,28.1,13.1,0000.0,0011.93,0003.20,0002.01
2021-12-09 21:57:00,,0813.9,5.00,0.00,26.3,25.5,00.0,35.3,28.2,13.2,0000.0,0011.36,0003.22,0002.01
2021-12-09 21:58:00,,0813.8,4.99,0.00,26.3,25.5,00.0,35.3,28.2,13.1,0000.0,0011.64,0003.21,0001.99
2021-12-09 21:59:00,,0813.9,5.00,0.00,26.3,25.5,00.0,35.3,28.2,12.9,0000.0,0011.24,0003.17,0001.97
